Regional Weather Roundup
Issued by NWS Upton, NY

Current Version | Previous Version | Graphics & Text | Print | Product List | Glossary Off
Versions: 1 2 3 4 5 6 7 8 9 10 11 12 13 14 15 16 17 18 19 20 21 22 23 24 25 26 27 28

000
ASUS41 KOKX 251904
RWROKX

REGIONAL WEATHER ROUNDUP
NATIONAL WEATHER SERVICE NEW YORK NY
300 PM EDT MON JUL 25 2016

NOTE: "FAIR" INDICATES FEW OR NO CLOUDS BELOW 12,000 FEET WITH NO
SIGNIFICANT WEATHER AND/OR OBSTRUCTIONS TO VISIBILITY.

NYZ071-072-176-178-NJZ106-104-252000-
NEW YORK CITY METRO AREA

CITY           SKY/WX    TMP DP  RH WIND       PRES   REMARKS
Central Park   SUNNY     92  73  53 VRB6      29.88F HX 100
LaGuardia APRT CLOUDY    91  73  55 S13       29.85F HX  99
Kennedy INTL   PTSUNNY   84  72  67 S13       29.88F
Newark/Liberty PTSUNNY   96  69  41 SW8       29.84F HX 102
BRNX BOT. GARD   N/A     90  72  55 E3        29.86F HX  96
Wall St Helipt PTCLDY    90  73  58 SW7       29.86F HX  98
Teterboro      PTSUNNY   92  71  50 S9G17     29.83F HX  98
$$

NYZ177-179-078>081-252000-
LONG ISLAND NEW YORK

CITY           SKY/WX    TMP DP  RH WIND       PRES   REMARKS
FARMINGDALE    SUNNY     86  73  65 SW13      29.88F HX  93
ISLIP          PTSUNNY   84  72  67 SW12      29.88F
SHIRLEY        SUNNY     85  72  65 SW13G18   29.88F HX  91
RIVERHEAD      NOT AVBL
WESTHAMPTON    SUNNY     83  70  64 SW16G23   29.90F
SOUTHAMPTON      N/A     79  72  78 SW9       29.85F
BRIDGEHAMPTON    N/A     84  72  65 SW3       29.89S
EAST HAMPTON   FAIR      80  70  70 SW17      29.88F
MONTAUK POINT    N/A     80  70  71 VRB7G20   29.90F
$$

NYZ052-065-067-252000-
HUDSON VALLEY

CITY           SKY/WX    TMP DP  RH WIND       PRES   REMARKS
WHITE PLAINS   PTSUNNY   87  71  58 S7        29.86F HX  93
NEWBURGH       PTSUNNY   73  72  94 CALM      29.92R
MONTGOMERY     LGT RAIN  75  73  93 SW3       29.89F
POUGHKEEPSIE   TSTM      76  72  87 SE7       29.88F FOG
ALBANY         PTSUNNY   80  72  76 SW7       29.82F
$$

NJZ001-105-106-008-010-013-015-019>022-104-252000-
NEW JERSEY

CITY           SKY/WX    TMP DP  RH WIND       PRES   REMARKS
NEWARK/LIBERTY PTSUNNY   96  69  41 SW8       29.84F HX 102
TETERBORO      PTSUNNY   92  71  50 S9G17     29.83F HX  98
CALDWELL       PTSUNNY   93  71  48 E5        29.84F HX 100
MORRISTOWN     PTSUNNY   95  72  46 W9G17     29.86F HX 103
SOMERVILLE     CLOUDY    96  72  45 VRB3      29.83F HX 104
SUSSEX         LGT RAIN  77  72  84 E6        29.91R
ANDOVER          N/A     86  70  58 N10G20    29.89F HX  90
TRENTON        MOSUNNY   94  75  54 SW12      29.85F HX 105
MILLVILLE      SUNNY     94  76  55 SW8       29.89F HX 106
ATLANTIC CITY  MOSUNNY   92  77  61 S10       29.88F HX 105
WRIGHTSTOWN    SUNNY     94  75  54 W10       29.84F HX 105
TOMS RIVER     MOSUNNY   96  76  52 SW8       29.87F HX 109
BELMAR         SUNNY     92  74  55 VRB6      29.88F HX 101
$$

PAZ047>061-062-071-252000-
EASTERN PENNSYLVANIA

CITY           SKY/WX    TMP DP  RH WIND       PRES   REMARKS
PHILADELPHIA   PTSUNNY   95  75  52 SW8       29.87F HX 107
ALLENTOWN      CLOUDY    94  72  48 CALM      29.85F HX 102
SCRANTON       CLOUDY    90  68  48 NE14      29.88F THUNDER HX  94
$$

CTZ002-004>006-009-010-012-RIZ004-006-007-MAZ004-011-015-252000-
SOUTHERN NEW ENGLAND
 IN CT

CITY           SKY/WX    TMP DP  RH WIND       PRES   REMARKS
BRADLEY INTL   CLOUDY    92  67  43 S10       29.83F HX  95
HARTFORD       MOSUNNY   93  69  45 S10       29.83F HX  98
DANBURY        MOSUNNY   90  70  51 SW8       29.87F HX  95
WTRBRY/OXFORD  MOSUNNY   90  72  55 S9        29.91F HX  96
BRIDGEPORT     SUNNY     87  70  56 SW9       29.87F HX  92
MERIDEN        MOSUNNY   91  69  48 S12G20    29.86F HX  96
NEW HAVEN      SUNNY     85  70  60 SW9       29.88F
CHESTER        FAIR      86  70  58 SW9G15    29.89S HX  90
GROTON         MOSUNNY   80  69  69 S10       29.87F
WILLIMANTIC    NOT AVBL

 IN RI

CITY           SKY/WX    TMP DP  RH WIND       PRES   REMARKS
PROVIDENCE     MOSUNNY   92  66  42 S15       29.86F HX  94
BLOCK ISLAND   CLOUDY    80  69  69 S15       29.91F
WESTERLY       CLOUDY    82  66  58 S13G21    29.89F

 IN MA

CITY           SKY/WX    TMP DP  RH WIND       PRES   REMARKS
BOSTON         PTSUNNY   81  69  67 NE8       29.83F
WORCESTER      SUNNY     88  62  41 S10       29.89F
WESTFIELD      CLOUDY    93  64  38 W10       29.83F HX  94
PROVINCETOWN   SUNNY     84  71  65 S14       29.87F
NANTUCKET      CLOUDY    76  71  85 SW13      29.91F
$$

ANZ330-335-338-340-345-350-353-355-252000-
COASTAL MARINE OBSERVATIONS


STATION/POSITION TIME  SKY/WX   TEMP    WIND        PRES    VSBY  WAVE
                                AIR SEA DIR/SP/G                  HT/PER
                 (UTC)          (F)     (DEG/KT/KT) (MB)    (MI)  (FT/S)
NY HARB ENTRANCE 1750            76 75  190/ 12/ 12 1012.3          2/ 4
20S FIRE ISLAND  1750            75 73  200/  8/ 10 1012.4          3/ 5
GREAT SOUTH BAY  1800            77 81  230/ 14/ 17   N/A
23 SSW MONTAUK P 1750            75 74  220/  4/  4 1013.4          2/ 4
15 E BARNEGAT LI 1822               75                N/A           2/ 3
HUDSON CANYON    1750            78 77              1012.9          2/ 5
KINGS POINT      1800            83 74              1011.5
EXECUTION ROCKS  1800            81     180/  8/ 10   N/A
CENTRAL LI SOUND NOT AVBL
EASTERN LI SOUND 1800            75 70  130/  6/  6   N/A
ROBBINS REEF     1812            78     170/ 19/ 20 1010.8
$$


>>>>>>>>>>>>>>>>>>>>>>>>>>>> KEY <<<<<<<<<<<<<<<<<<<<<<<<<<<
>                                                          <
>     SKY/WX - SKY CONDITION/PRESENT WEATHER               <
>     TMP    - TEMPERATURE IN FAHRENHEIT                   <
>     DP     - DEWPOINT IN FAHRENHEIT                      <
>     RH     - RELATIVE HUMIDITY IN PERCENT                <
>     WIND   - DIRECTION AND SPEED IN MPH                  <
>     PRES   - MEAN SEA LEVEL PRESSURE IN INCHES OF HG     <
>     WCI    - WIND CHILL INDEX                            <
>     VSB    - VISIBILITY IN MILES                         <
>     HX     - HEAT INDEX                                  <
>     TC     - TEMPERATURE IN CELSIUS                      <
>     VRB    - VARIABLE WIND DIRECTION                     <
>                                                          <
>>>>>>>>>>>>>>>>>>>>>>>>>>>> KEY <<<<<<<<<<<<<<<<<<<<<<<<<<<






USA.gov is the U.S. government's official web portal to all federal, state and local government web resources and services.